Regional Weather Roundup
Issued by NWS

Home | Current Version | Previous Version | Text Only | Print | Product List | Glossary Off
Versions: 1 2 3 4 5 6 7 8 9 10 11 12 13 14 15 16 17 18 19 20 21 22 23 24 25 26 27 28 29 30 31 32 33 34 35 36 37 38 39 40 41 42 43 44 45 46 47 48 49 50

406
ASUS43 KFSD 090810
RWRSD

WEATHER ROUNDUP FOR SOUTH DAKOTA
NATIONAL WEATHER SERVICE SIOUX FALLS SD
200 AM CST TUE FEB 09 2016

NOTE: "FAIR" INDICATES FEW OR NO CLOUDS BELOW 12,000 FEET WITH NO
SIGNIFICANT WEATHER AND/OR OBSTRUCTIONS TO VISIBILITY.


SDZ001>005-009-010-012>017-090900-
NORTHWEST AND NORTH CENTRAL SOUTH DAKOTA

CITY           SKY/WX    TMP DP  RH WIND       PRES   REMARKS
BUFFALO          N/A     28  13  53 CALM      30.15F
FAITH            N/A     29  16  58 NW5       30.23S WCI  24
MOBRIDGE       CLOUDY    23  15  71 NW8       30.23R WCI  14
$$

SDZ012>016-024>037-041>051-057-063-072>074-090900-
SOUTHWEST AND SOUTH CENTRAL SOUTH DAKOTA

CITY           SKY/WX    TMP DP  RH WIND       PRES   REMARKS
RAPID CTY ARPT CLOUDY    30  18  60 N5        30.22F WCI  25
PIERRE         CLEAR     23  16  74 N13       30.23S WCI  11
CUSTER         CLEAR     35  23  61 NW9G20    30.17F WCI  28
ELLSWORTH AFB  CLOUDY    30  18  61 NW6       30.21F WCI  24
PHILIP         CLOUDY    32  19  58 N7        30.24F WCI  26
PINE RIDGE     CLOUDY    30  21  69 CALM      30.22F
SPEARFISH      CLOUDY    39  25  56 W13       30.22F
WINNER         FAIR      25  18  74 N9        30.21F WCI  15
$$

SDZ004>011-016>023-039-040-090900-
NORTHEAST SOUTH DAKOTA

CITY           SKY/WX    TMP DP  RH WIND       PRES   REMARKS
ABERDEEN       CLEAR     14   8  77 N12       30.24S WCI   0
WATERTOWN      CLEAR      6   0  76 N15       30.13R WCI -12
BROOKINGS      CLOUDY     7   1  76 N21G30    30.11R WCI -13
SISSETON         N/A      6   2  83 N20       30.20R WCI -14
$$

SDZ017-020-022-023-036>040-048>070-090900-
SOUTHEAST SOUTH DAKOTA

CITY           SKY/WX    TMP DP  RH WIND       PRES   REMARKS
SIOUX FALLS    MOCLDY    11   4  73 N20G28    30.12S WCI  -7
HURON          CLEAR     15   9  76 N13       30.22S WCI   1
CHAMBERLAIN    PTCLDY    22  12  65 N15G22    30.22F WCI   9
MITCHELL       CLEAR     17  10  74 N16G23    30.23R WCI   2
YANKTON        PTCLDY    18   9  68 N25G32    30.17S WCI  -1
$$

ABBREVIATIONS USED IN REMARKS
   TC - TEMPERATURE IN CELSIUS
  WCI - WIND CHILL INDEX
   HX - HEAT INDEX
  VSB - VISIBILITY





USA.gov is the U.S. government's official web portal to all federal, state and local government web resources and services.